Location: Bastelaar
(51.0950°N, 3.8602°E)
Time: 01:41:47
(UTC+00:00)

ARIANE 6 FM1 Upper Stage - Pass Details

Date: 26 January 2026
Orbit: 522 x 609 km, 62.0° (Epoch: 13 February)

Event Time Altitude Azimuth Distance (km) Brightness Sun altitude
Rises 17:32:28 0° 208° (SSW) 2,705 6.9 -10.6°
Reaches altitude 10° 17:34:44 10° 202° (SSW) 1,802 5.8 -10.9°
Maximum altitude 17:38:37 46° 129° (SE) 727 3.0 -11.5°
Enters shadow 17:41:19 18° 62° (ENE) 1,362 4.0 -11.9°
